Location: Augustenthal
(51.7167°N, 10.2833°E)
Time: 09:10:57
(UTC+00:00)

ALOS 2 - Pass Details

Date: 27 September 2021
Orbit: 630 x 632 km, 97.9° (Epoch: 26 October)

Event Time Altitude Azimuth Distance (km) Brightness Sun altitude
Exits shadow 22:25:41 12° 352° (N) 1,888 5.7 -39.4°
Drops below altitude 10° 22:26:01 10° 351° (N) 2,027 5.9 -39.5°
Sets 22:28:14 0° 348° (NNW) 2,939 6.9 -39.5°
